Regional Weather Roundup
Issued by NWS

Home | Current Version | Previous Version | Graphics & Text | Print | Product List | Glossary On
Versions: 1 2 3 4 5 6 7 8 9 10 11 12 13 14 15 16 17 18 19 20 21 22 23 24 25 26 27 28 29 30 31 32 33 34 35 36 37 38 39 40 41 42 43 44 45 46 47 48 49 50
000
ASUS45 KSLC 252210
RWRUT

UTAH REGIONAL WEATHER ROUNDUP
NATIONAL WEATHER SERVICE SALT LAKE CITY UT
400 PM MDT SAT APR 25 2015

UTZ001>011-023>025-252300-

NORTHERN UTAH

CITY           SKY/WX    TMP DP  RH WIND       PRES   REMARKS
BRIGHAM CITY   CLOUDY    56  32  39 N7        29.68F
HILL AFB       NOT AVBL
LOGAN          SUNNY     55  33  43 W5        29.68F
OGDEN          CLOUDY    56  36  47 NW8       29.66F
PROVO AIRPORT  PTSUNNY   55  39  54 VRB3      29.68F
SALT LAKE CITY CLOUDY    57  38  48 W12       29.66F
VERNAL         CLOUDY    58  25  28 SW7       29.71F
WENDOVER       CLOUDY    50  36  57 N6        29.69F
HEBER CITY     CLOUDY    52  34  50 E5        29.69F
WEST JORDAN    CLOUDY    54  37  54 SW12      29.67F

$$

UTZ012>022-026-027-252300-

SOUTHERN/CENTRAL UTAH

CITY           SKY/WX    TMP DP  RH WIND       PRES   REMARKS
BLANDING       PTSUNNY   56  34  43 S12G18    29.83F
BRYCE CANYON   LGT RAIN  40  35  83 S12       29.78F WCI  33
CEDAR CITY     CLOUDY    46  40  79 SW17      29.72F
DELTA          CLOUDY    47  44  87 SW12      29.72F
HANKSVILLE     CLOUDY    57  45  62 N7        29.70F
MILFORD        LGT RAIN  46  26  45 S22G30    29.72S
MOAB/CYNLANDS  CLOUDY    54  46  74 E12       29.71F
PRICE          CLOUDY    43  38  82 NE12      29.77F
ST GEORGE      CLOUDY    55  43  62 CALM      29.77S

$$

REGIONAL REPORTS     COLORADO/ARIZONA

CITY           SKY/WX    TMP DP  RH WIND       PRES   REMARKS
CRAIG, CO      MOSUNNY   53  32  44 CALM      29.77F
GRAND JUNCTION CLOUDY    57  37  47 SE9       29.73F
RIFLE          PTSUNNY   53  37  54 SE3       29.78F
MONTROSE       PTSUNNY   52  41  66 N5        29.79F
CORTEZ         LGT RAIN  58  38  47 S9G24     29.80F
PAGE, AZ       CLOUDY    61  36  39 SW12      29.70S
GRAND CANYON   LGT RAIN  46  32  58 SW26G43   29.82F
KINGMAN        CLOUDY    59  34  39 S23G30    29.78F
FLAGSTAFF      RAIN      39  38  96 SW28G36   29.87F FOG     WCI  28

$$

REGIONAL REPORTS    NEVADA/IDAHO/WYOMING

CITY           SKY/WX    TMP DP  RH WIND       PRES   REMARKS
LAS VEGAS, NV  PTSUNNY   71  32  23 SW20G33   29.62F
ELY            CLOUDY    40  35  83 E8        29.73F WCI  34
ELKO           PTSUNNY   49  36  61 W15G23    29.74S
POCATELLO, ID  MOSUNNY   55  27  34 VRB3      29.72F
BURLEY         CLOUDY    48  34  58 W6        29.73F
EVANSTON, WY   PTSUNNY   49  26  41 N6        29.72F
ROCK SPRINGS   CLOUDY    52  23  32 SW8       29.76F
KEMMERER       CLOUDY    48  25  40 W6        29.75F

$$


USA.gov is the U.S. government's official web portal to all federal, state and local government web resources and services.